Total_Precipitation_Accumulation
2.38 2.38 2.35 2.32 2.19 2.27 2.51 2.71 2.72 3.07 3.21 2.83 2.46 2.29 2.31 2.40 2.28 2.24 2.12 1.99 1.94 2.17 2.63 2.87 2.77 2.54 2.27 2.00 1.85 1.80 1.67 1.50 1.40 1.27 1.21 1.29 1.32 1.25 1.14 1.05 0.99 0.93 0.85
2.54 2.71 2.62 2.55 2.38 2.35 2.52 2.72 2.90 3.37 3.32 3.15 2.74 2.48 2.41 2.39 2.21 2.13 2.22 2.37 2.21 2.12 2.28 2.66 2.98 2.93 2.77 2.50 2.21 2.06 1.92 1.83 1.65 1.35 1.18 1.26 1.34 1.32 1.30 1.26 1.16 1.01 0.88
2.59 2.62 2.49 2.39 2.44 2.56 2.75 2.78 2.99 3.21 2.93 2.95 2.76 2.55 2.36 2.17 2.03 2.00 2.18 2.35 2.22 2.16 2.31 2.54 2.82 2.94 3.08 3.10 2.96 2.76 2.33 2.01 1.83 1.60 1.35 1.28 1.31 1.29 1.28 1.31 1.30 1.13 0.95
2.47 2.70 2.49 2.34 2.66 2.69 2.83 3.14 3.29 3.25 3.20 3.22 2.97 2.58 2.34 2.23 1.92 1.80 1.78 1.95 2.18 1.95 2.26 2.52 2.59 2.72 3.08 3.46 3.69 3.67 3.23 2.70 2.30 2.00 1.73 1.56 1.54 1.41 1.22 1.16 1.20 1.14 0.95
2.52 2.84 2.80 2.88 2.92 3.03 3.09 2.95 3.39 3.45 3.33 3.34 2.92 2.69 2.35 2.09 1.89 1.70 1.61 1.61 1.84 2.05 2.17 2.22 2.32 2.48 2.97 3.75 4.10 4.15 4.06 3.61 2.96 2.56 2.37 2.21 2.08 1.78 1.44 1.27 1.22 1.14 1.00
2.63 3.05 2.92 2.89 2.96 3.13 3.20 3.18 3.35 3.40 3.14 3.11 2.81 2.70 2.31 1.84 1.74 1.68 1.51 1.50 1.62 1.67 1.94 2.24 2.45 2.21 2.56 3.18 3.62 4.16 4.50 4.24 3.54 3.10 2.95 2.81 2.71 2.39 1.82 1.51 1.44 1.33 1.19
2.65 3.07 2.90 3.13 3.09 3.08 3.11 3.17 3.30 3.23 2.95 3.13 3.21 2.78 2.24 1.82 1.79 1.57 1.51 1.55 1.59 1.58 1.89 2.28 2.55 2.48 2.22 2.32 2.68 3.21 3.92 4.21 3.96 3.55 3.35 3.18 3.16 2.93 2.33 1.94 1.78 1.57 1.45
2.85 2.86 3.02 2.99 3.04 3.14 3.10 3.10 3.24 3.07 2.72 2.98 3.32 3.37 2.72 2.32 1.89 1.44 1.54 1.64 1.76 1.83 1.90 2.03 2.25 2.47 2.46 2.59 2.35 2.29 2.93 3.74 4.22 4.12 3.77 3.31 3.13 3.00 2.70 2.47 2.19 1.95 1.82
3.06 3.04 3.00 2.91 2.91 2.73 2.78 2.86 2.90 2.92 2.85 2.79 3.11 3.43 3.01 2.53 2.20 1.69 1.57 1.59 1.81 2.07 2.09 2.11 2.15 2.38 2.51 2.89 2.99 2.67 2.49 2.87 3.64 4.39 4.39 3.77 3.17 2.87 2.79 2.73 2.62 2.34 2.13
2.87 2.68 2.62 2.76 2.77 2.57 2.58 2.28 2.42 2.62 2.63 2.49 2.76 2.84 2.87 2.86 2.78 2.14 1.72 1.57 1.71 1.91 2.10 2.02 2.04 2.29 2.57 2.85 3.09 2.96 2.50 2.30 2.64 3.58 4.21 4.10 3.61 3.11 2.85 2.86 3.10 3.03 2.62
2.59 2.27 2.30 2.47 2.45 2.37 2.27 2.16 2.32 2.22 2.19 2.23 2.44 2.64 2.73 2.79 2.69 2.54 2.14 2.07 2.01 1.90 1.87 1.93 2.11 2.22 2.43 2.76 3.09 2.87 2.69 2.47 2.30 2.46 2.97 3.43 3.59 3.44 3.28 3.49 3.93 4.10 3.82
2.25 1.99 1.92 2.07 2.19 2.21 2.15 2.14 2.22 2.12 2.14 2.27 2.27 2.34 2.58 2.60 2.58 2.73 2.36 2.20 2.16 1.92 1.90 2.02 2.03 2.21 2.30 2.51 2.63 2.72 2.61 2.41 2.25 2.21 2.34 2.63 2.92 3.06 3.19 3.49 4.02 4.42 4.59
1.92 1.88 1.91 1.98 2.03 2.07 1.94 2.02 2.09 2.13 2.26 2.32 2.25 2.20 2.34 2.41 2.53 2.76 2.70 2.44 2.31 2.12 2.18 2.14 2.00 2.05 1.98 2.11 2.22 2.24 2.05 1.95 1.85 1.82 1.89 2.00 2.05 2.23 2.54 2.97 3.47 3.96 4.24
1.92 1.99 1.96 1.84 1.79 1.89 1.79 2.04 1.99 2.04 2.23 2.27 2.06 2.29 2.35 2.38 2.66 2.86 2.96 3.05 2.77 2.50 2.41 2.36 2.23 2.04 1.99 1.98 2.00 1.92 1.71 1.66 1.45 1.44 1.52 1.63 1.68 1.76 2.00 2.27 2.67 2.94 3.15
2.00 2.11 2.06 1.94 1.84 1.92 2.03 2.30 2.23 2.20 2.41 2.37 2.32 2.50 2.48 2.46 2.63 2.74 2.93 3.15 3.23 2.90 2.71 2.65 2.46 2.14 2.00 1.98 1.99 1.77 1.79 1.73 1.50 1.39 1.31 1.27 1.34 1.45 1.53 1.65 1.85 2.00 2.21
1.84 2.01 2.15 2.07 2.00 2.03 2.18 2.36 2.37 2.52 2.66 2.61 2.65 2.75 2.71 2.58 2.70 2.78 2.80 3.03 3.30 3.21 2.87 2.49 2.27 2.01 1.89 1.77 1.95 1.75 1.77 1.76 1.57 1.42 1.22 1.13 1.16 1.24 1.27 1.31 1.40 1.52 1.70
1.81 1.88 2.07 2.14 2.11 2.15 2.23 2.27 2.26 2.55 2.66 2.64 2.61 2.62 2.61 2.73 2.75 2.69 2.78 2.93 3.18 3.25 2.89 2.37 2.25 2.20 2.17 2.06 2.05 1.92 1.79 1.69 1.49 1.37 1.22 1.18 1.16 1.18 1.21 1.26 1.30 1.28 1.32
1.88 1.91 2.03 2.05 1.97 1.97 2.15 2.19 2.25 2.52 2.65 2.55 2.53 2.54 2.34 2.39 2.44 2.34 2.48 2.54 2.67 2.91 2.85 2.54 2.50 2.48 2.42 2.28 2.24 2.19 1.99 1.74 1.46 1.42 1.27 1.21 1.21 1.19 1.17 1.19 1.23 1.24 1.26
1.78 1.83 1.84 1.87 1.91 2.01 2.11 2.12 2.12 2.15 2.17 2.26 2.48 2.59 2.39 2.36 2.27 2.25 2.26 2.24 2.32 2.45 2.64 2.56 2.47 2.52 2.45 2.42 2.34 2.13 1.98 1.84 1.53 1.46 1.42 1.32 1.25 1.17 1.14 1.13 1.15 1.23 1.35
1.62 1.70 1.78 1.88 1.93 1.98 2.01 2.08 2.12 2.07 2.06 2.11 2.25 2.31 2.28 2.24 2.20 2.28 2.17 2.14 2.21 2.34 2.47 2.50 2.43 2.52 2.52 2.45 2.45 2.25 2.24 2.09 1.93 1.70 1.62 1.49 1.48 1.42 1.32 1.22 1.17 1.18 1.29
1.68 1.76 1.82 1.84 1.84 1.83 1.75 1.78 1.87 1.89 2.02 1.98 1.89 1.90 1.93 1.97 1.96 1.97 1.82 1.96 2.16 2.27 2.32 2.35 2.34 2.49 2.65 2.67 2.49 2.42 2.47 2.43 2.26 1.96 1.81 1.63 1.56 1.47 1.43 1.38 1.31 1.23 1.21
1.77 1.80 1.77 1.81 1.82 1.59 1.75 1.75 1.75 1.85 1.94 1.93 1.84 1.74 1.65 1.64 1.58 1.58 1.55 1.63 1.87 2.06 2.17 2.27 2.25 2.36 2.59 2.77 2.83 2.78 2.64 2.55 2.52 2.35 2.21 2.11 1.88 1.74 1.62 1.48 1.44 1.35 1.24
1.88 1.84 1.78 1.78 1.82 1.89 1.92 1.74 1.59 1.57 1.68 1.73 1.71 1.70 1.50 1.40 1.55 1.51 1.56 1.53 1.55 1.68 1.83 2.01 2.09 2.07 2.25 2.50 2.71 2.64 2.71 2.73 2.72 2.73 2.70 2.62 2.28 2.00 1.73 1.55 1.42 1.15 1.04
2.07 2.05 2.00 1.91 1.90 1.88 1.84 1.62 1.62 1.57 1.63 1.64 1.66 1.70 1.68 1.58 1.61 1.71 1.69 1.62 1.51 1.46 1.54 1.61 1.73 1.85 2.06 2.34 2.58 2.55 2.56 2.62 2.65 2.64 2.68 2.67 2.37 2.16 1.88 1.66 1.55 1.27 1.07
2.20 2.12 2.07 2.08 2.01 2.02 2.08 1.89 1.90 1.77 1.79 1.82 1.84 1.84 1.79 1.68 1.77 1.71 1.65 1.65 1.59 1.56 1.61 1.67 1.64 1.74 1.96 2.07 2.22 2.29 2.27 2.31 2.23 2.13 2.25 2.41 2.38 2.29 2.13 1.84 1.59 1.40 1.14
2.24 2.25 2.24 2.22 2.21 2.25 2.47 2.28 2.10 1.96 1.98 1.98 2.05 2.03 2.05 1.86 1.83 1.74 1.63 1.65 1.66 1.67 1.72 1.67 1.61 1.57 1.59 1.77 1.96 2.00 2.14 2.28 2.16 1.96 1.73 1.85 2.03 2.23 2.34 2.11 1.84 1.64 1.50